| time (UTC) | temp F | wind direction | speed MPH | gust MPH | rain 1hr in | rain 24hr in | rain mn in | humidity % | barometer mb |
| 20260502213001 | 61 | 309 | 0.0 | 1.0 | 0.00 | 0.00 | 0.00 | 86 | 1024.5 |
| 20260502211501 | 61 | 309 | 0.0 | 1.0 | 0.00 | 0.00 | 0.00 | 87 | 1024.6 |
| 20260502210001 | 61 | 309 | 0.0 | 2.0 | 0.00 | 0.00 | 0.00 | 87 | 1024.6 |
| 20260502204610 | 61 | 128 | 0.0 | 3.0 | 0.00 | 0.00 | 0.00 | 87 | 1024.5 |
| 20260502203114 | 61 | 120 | 0.0 | 0.0 | 0.00 | 0.00 | 0.00 | 87 | 1024.5 |
| 20260502201559 | 60 | 155 | 0.0 | 1.0 | 0.00 | 0.00 | 0.00 | 88 | 1024.5 |
| 20260502200059 | 60 | 221 | 0.0 | 1.0 | 0.00 | 0.00 | 0.00 | 88 | 1024.2 |
| 20260502194559 | 60 | 135 | 0.0 | 1.0 | 0.00 | 0.00 | 0.00 | 87 | 1024.1 |
| 20260502193058 | 60 | 131 | 0.0 | 0.0 | 0.00 | 0.00 | 0.00 | 87 | 1024.1 |
| 20260502191611 | 61 | 129 | 0.0 | 2.0 | 0.00 | 0.00 | 0.00 | 86 | 1024.0 |
| 20260502190107 | 61 | 129 | 0.0 | 1.0 | 0.00 | 0.00 | 0.00 | 86 | 1024.1 |
| 20260502184555 | 61 | 126 | 0.0 | 3.0 | 0.00 | 0.00 | 0.00 | 85 | 1024.0 |
| 20260502183100 | 61 | 109 | 0.0 | 4.0 | 0.00 | 0.00 | 0.00 | 83 | 1024.2 |
| 20260502181557 | 62 | 160 | 1.0 | 4.0 | 0.00 | 0.00 | 0.00 | 81 | 1024.1 |
| 20260502180110 | 62 | 93 | 1.0 | 4.0 | 0.00 | 0.00 | 0.00 | 79 | 1024.0 |
| 20260502163105 | 64 | 130 | 0.0 | 7.0 | 0.00 | 0.00 | 0.00 | 76 | 1024.8 |
| 20260502161545 | 63 | 103 | 2.0 | 6.0 | 0.00 | 0.00 | 0.00 | 74 | 1024.9 |
| 20260502151541 | 65 | 146 | 2.0 | 6.0 | 0.00 | 0.00 | 0.00 | 68 | 1025.4 |
| 20260502123025 | 66 | 114 | 2.0 | 8.0 | 0.00 | 0.00 | 0.00 | 67 | 1026.8 |
| 20260502121524 | 67 | 110 | 3.0 | 8.0 | 0.00 | 0.00 | 0.00 | 63 | 1026.9 |
| 20260502114522 | 68 | 158 | 4.0 | 9.0 | 0.00 | 0.00 | 0.00 | 61 | 1026.8 |
| 20260502113020 | 68 | 113 | 0.0 | 4.0 | 0.00 | 0.00 | 0.00 | 59 | 1027.0 |
| 20260502111517 | 68 | 113 | 1.0 | 5.0 | 0.00 | 0.00 | 0.00 | 61 | 1027.0 |
| 20260502110015 | 67 | 29 | 1.0 | 4.0 | 0.00 | 0.00 | 0.00 | 65 | 1027.1 |
| 20260502104511 | 66 | 128 | 1.0 | 4.0 | 0.00 | 0.00 | 0.00 | 67 | 1027.4 |
| 20260502103010 | 65 | 152 | 0.0 | 2.0 | 0.00 | 0.00 | 0.00 | 66 | 1027.8 |
| 20260502101509 | 65 | 153 | 0.0 | 3.0 | 0.00 | 0.00 | 0.00 | 69 | 1027.8 |
| 20260502070054 | 61 | 151 | 0.0 | 2.0 | 0.00 | 0.00 | 0.00 | 81 | 1028.1 |
| 20260502064548 | 61 | 150 | 0.0 | 0.0 | 0.00 | 0.00 | 0.00 | 82 | 1028.2 |
| 20260502063046 | 60 | 150 | 0.0 | 1.0 | 0.00 | 0.00 | 0.00 | 83 | 1028.0 |
| 20260502061545 | 60 | 150 | 0.0 | 0.0 | 0.00 | 0.00 | 0.00 | 84 | 1027.9 |
| 20260502060046 | 60 | 150 | 0.0 | 2.0 | 0.00 | 0.00 | 0.00 | 83 | 1028.0 |
| 20260502054542 | 60 | 150 | 0.0 | 0.0 | 0.00 | 0.00 | 0.00 | 84 | 1027.8 |
| 20260502053044 | 60 | 151 | 0.0 | 1.0 | 0.00 | 0.00 | 0.00 | 85 | 1027.8 |
| 20260502051542 | 60 | 150 | 0.0 | 0.0 | 0.00 | 0.00 | 0.00 | 86 | 1027.7 |
| 20260502050046 | 60 | 150 | 0.0 | 0.0 | 0.00 | 0.00 | 0.00 | 86 | 1027.7 |
| 20260502044549 | 60 | 150 | 0.0 | 0.0 | 0.00 | 0.00 | 0.00 | 86 | 1027.7 |
| 20260502043047 | 60 | 150 | 0.0 | 0.0 | 0.00 | 0.00 | 0.00 | 86 | 1027.7 |
| 20260502041546 | 60 | 150 | 0.0 | 1.0 | 0.00 | 0.00 | 0.00 | 86 | 1027.6 |
| 20260502040039 | 60 | 150 | 0.0 | 1.0 | 0.00 | 0.00 | 0.00 | 85 | 1027.6 |
| 20260502034540 | 60 | 150 | 0.0 | 1.0 | 0.00 | 0.00 | 0.00 | 84 | 1027.6 |
| 20260502033040 | 60 | 149 | 0.0 | 2.0 | 0.00 | 0.00 | 0.00 | 84 | 1027.5 |
| 20260502031537 | 60 | 149 | 0.0 | 3.0 | 0.00 | 0.00 | 0.00 | 84 | 1027.6 |
| 20260502030038 | 60 | 116 | 0.0 | 2.0 | 0.00 | 0.00 | 0.00 | 84 | 1027.6 |
| 20260502024539 | 61 | 115 | 0.0 | 3.0 | 0.00 | 0.00 | 0.00 | 84 | 1027.8 |
| 20260502023033 | 61 | 134 | 0.0 | 2.0 | 0.00 | 0.00 | 0.00 | 84 | 1027.8 |
| 20260502021532 | 61 | 134 | 0.0 | 2.0 | 0.00 | 0.00 | 0.00 | 85 | 1027.9 |
| 20260502020030 | 60 | 19 | 0.0 | 1.0 | 0.00 | 0.00 | 0.00 | 84 | 1027.8 |
| 20260502014547 | 60 | 19 | 0.0 | 2.0 | 0.00 | 0.00 | 0.00 | 84 | 1027.9 |
| 20260502013030 | 60 | 19 | 0.0 | 0.0 | 0.00 | 0.00 | 0.00 | 85 | 1027.9 |
| 20260502011527 | 60 | 19 | 0.0 | 2.0 | 0.00 | 0.00 | 0.00 | 85 | 1028.1 |
| 20260502010025 | 60 | 20 | 0.0 | 0.0 | 0.00 | 0.00 | 0.00 | 84 | 1028.3 |
| 20260502004523 | 60 | 20 | 0.0 | 2.0 | 0.00 | 0.00 | 0.00 | 80 | 1028.4 |
| 20260502003021 | 60 | 20 | 0.0 | 2.0 | 0.00 | 0.00 | 0.00 | 80 | 1028.6 |
| 20260502001521 | 60 | 20 | 0.0 | 2.0 | 0.00 | 0.00 | 0.00 | 80 | 1028.8 |
| 20260502000038 | 60 | 20 | 0.0 | 1.0 | 0.00 | 0.00 | 0.00 | 80 | 1028.9 |
| 20260501234519 | 60 | 20 | 0.0 | 0.0 | 0.00 | 0.00 | 0.00 | 80 | 1029.0 |
| 20260501233019 | 60 | 20 | 0.0 | 3.0 | 0.00 | 0.00 | 0.00 | 80 | 1029.1 |
| 20260501231523 | 60 | 17 | 0.0 | 2.0 | 0.00 | 0.00 | 0.00 | 79 | 1029.1 |
| 20260501230020 | 60 | 347 | 0.0 | 5.0 | 0.00 | 0.00 | 0.00 | 80 | 1029.1 |
| 20260501224514 | 60 | 126 | 0.0 | 1.0 | 0.00 | 0.00 | 0.00 | 83 | 1029.1 |
| 20260501223013 | 60 | 125 | 0.0 | 1.0 | 0.00 | 0.00 | 0.00 | 84 | 1029.0 |
| 20260501221519 | 60 | 126 | 0.0 | 1.0 | 0.00 | 0.00 | 0.00 | 85 | 1028.9 |
| 20260501220014 | 60 | 126 | 0.0 | 2.0 | 0.00 | 0.00 | 0.00 | 86 | 1028.9 |
| 20260501214512 | 60 | 126 | 0.0 | 0.0 | 0.00 | 0.00 | 0.00 | 86 | 1028.9 |